Location: Erdweis
(48.5167°N, 15.3500°E)
Time: 14:33:16
(UTC+00:00)

USA 234 - Pass Details

Date: 19 January 2021
Orbit: 1100 x 1107 km, 123.0° (Epoch: 01 March)

Event Time Altitude Azimuth Distance (km) Brightness Sun altitude
Exits shadow 21:12:08 10° 288° (WNW) 2,956 5.9 -53.1°
Drops below altitude 10° 21:12:09 10° 288° (WNW) 2,963 5.9 -53.1°
Sets 21:15:08 0° 301° (WNW) 3,926 6.7 -53.5°
